Location: Newark
(12.4436°N, 0.6167°W)
Time: 03:26:49
(UTC+00:00)

Vanguard 1 - Pass Details

Date: 15 December 2019
Orbit: 651 x 3833 km, 34.2° (Epoch: 25 January)

Event Time Altitude Azimuth Distance (km) Brightness Sun altitude
Rises 04:34:48 0° 278° (W) 7,505 - -23.7°
Reaches altitude 10° 04:40:23 10° 286° (WNW) 6,728 - -22.4°
Exits shadow 04:47:59 24° 300° (WNW) 5,783 13.3 -20.6°
Maximum altitude 05:01:35 39° 350° (N) 4,750 13.2 -17.5°
Drops below altitude 10° 05:19:26 10° 55° (NE) 5,721 14.4 -13.5°
Sets 05:23:42 0° 63° (ENE) 6,343 14.9 -12.5°
